Weather History for Eastsound, WA

Change the Weather History Date:

Friday, November 9, 2012

  Actual Average (KBLI) Record (KBLI)
Temperature  
Mean Temperature 38 °F 45 °F  
Max Temperature 44 °F 51 °F 64 °F (1976)
Min Temperature 32 °F 38 °F 26 °F (1979)
Degree Days  
Heating Degree Days 27 20  
Month to date heating degree days 175  
Cooling Degree Days 0 0  
Month to date cooling degree days 0  
Year to date cooling degree days 42  
Moisture  
Dew Point 28 °F    
Average Humidity 60    
Maximum Humidity 93    
Minimum Humidity 46    
Precipitation  
Precipitation 0.00 in 0.20 in 2.87 in (1990)
Month to date precipitation 1.73  
Year to date precipitation 27.54  
Sea Level Pressure  
Sea Level Pressure 29.89 in    
Wind  
Wind Speed 3 mph (North)    
Max Wind Speed 9 mph    
Max Gust Speed -    
Visibility 10 miles    
Events      
T = Trace of Precipitation, MM = Missing Value Source: NWS Daily Summary

Daily Weather History Graph

Daily Weather History Graph

Search for Another Location

Airport:

Trip Planner

Search our weather history database for the weather conditions in past years. The results will help you decide how hot, cold, wet, or windy it might be!

Date:

Astronomy

Nov. 09, 2012 Rise Set
Actual Time 7:11 AM PST 4:38 PM PST
Civil Twilight 6:37 AM PST 5:12 PM PST
Nautical Twilight 6:00 AM PST 5:50 PM PST
Astronomical Twilight 5:23 AM PST 6:27 PM PST
Moon 1:54 AM PST (11/9) 2:14 PM PST (11/9)
Length of Visible Light 10h 34m
Length of Day
9h 26m
Waning Crescent, 22% of the Moon is Illuminated
Nov 9
Waning Crescent
Nov 13
New
Nov 20
First Quarter
Nov 28
Full
Dec 6
Last Quarter

Hourly Weather History & Observations

Time (PST) Temp. Windchill Dew Point Humidity Pressure Visibility Wind Dir Wind Speed Gust Speed Precip Events Conditions
12:15 AM 39.2 °F - 32.0 °F 75% 29.85 in 10.0 mi Calm Calm - N/A   Clear
12:35 AM 41.0 °F 37.1 °F 26.6 °F 57% 29.85 in 10.0 mi North 5.8 mph - N/A   Clear
12:55 AM 42.8 °F 40.1 °F 28.4 °F 57% 29.86 in 10.0 mi NNE 4.6 mph - N/A   Clear
1:15 AM 42.8 °F 41.1 °F 30.2 °F 61% 29.85 in 10.0 mi North 3.5 mph - N/A   Clear
1:35 AM 42.8 °F 41.1 °F 30.2 °F 61% 29.85 in 10.0 mi NNE 3.5 mph - N/A   Clear
1:55 AM 41.0 °F - 32.0 °F 70% 29.86 in 10.0 mi Calm Calm - N/A   Clear
2:15 AM 44.6 °F - 28.4 °F 53% 29.86 in 10.0 mi Calm Calm - N/A   Clear
2:35 AM 37.4 °F - 32.0 °F 81% 29.86 in 10.0 mi Calm Calm - N/A   Clear
2:55 AM 37.4 °F - 32.0 °F 81% 29.86 in 10.0 mi Calm Calm - N/A   Clear
3:15 AM 41.0 °F - 32.0 °F 70% 29.86 in 10.0 mi Calm Calm - N/A   Clear
3:35 AM 39.2 °F - 30.2 °F 70% 29.86 in 10.0 mi Calm Calm - N/A   Clear
3:55 AM 35.6 °F - 32.0 °F 87% 29.86 in 10.0 mi Calm Calm - N/A   Clear
4:15 AM 35.6 °F - 32.0 °F 87% 29.86 in 10.0 mi Calm Calm - N/A   Clear
4:35 AM 35.6 °F - 32.0 °F 87% 29.86 in 10.0 mi Calm Calm - N/A   Clear
4:55 AM 32.0 °F - 30.2 °F 93% 29.87 in 10.0 mi Calm Calm - N/A   Clear
5:15 AM 33.8 °F - 30.2 °F 87% 29.87 in 10.0 mi Calm Calm - N/A   Clear
5:35 AM 33.8 °F - 32.0 °F 93% 29.87 in 10.0 mi Calm Calm - N/A   Clear
5:55 AM 33.8 °F 30.8 °F 32.0 °F 93% 29.87 in 10.0 mi NE 3.5 mph - N/A   Clear
6:15 AM 41.0 °F - 26.6 °F 57% 29.87 in 10.0 mi Calm Calm - N/A   Clear
6:35 AM 39.2 °F - 26.6 °F 61% 29.88 in 10.0 mi Calm Calm - N/A   Clear
6:55 AM 39.2 °F - 26.6 °F 61% 29.88 in 10.0 mi Calm Calm - N/A   Clear
7:15 AM 41.0 °F - 24.8 °F 53% 29.88 in 10.0 mi Calm Calm - N/A   Clear
7:35 AM 41.0 °F - 26.6 °F 57% 29.89 in 10.0 mi Calm Calm - N/A   Clear
7:55 AM 41.0 °F - 24.8 °F 53% 29.89 in 10.0 mi Calm Calm - N/A   Clear
8:15 AM 41.0 °F - 26.6 °F 57% 29.89 in 10.0 mi Calm Calm - N/A   Clear
8:35 AM 41.0 °F 38.0 °F 26.6 °F 57% 29.90 in 10.0 mi NE 4.6 mph - N/A   Clear
8:55 AM 41.0 °F 39.0 °F 26.6 °F 57% 29.90 in 10.0 mi NNE 3.5 mph - N/A   Clear
9:15 AM 42.8 °F - 26.6 °F 53% 29.90 in 10.0 mi Calm Calm - N/A   Clear
9:35 AM 42.8 °F - 26.6 °F 53% 29.90 in 10.0 mi Calm Calm - N/A   Clear
9:55 AM 42.8 °F - 26.6 °F 53% 29.90 in 10.0 mi Calm Calm - N/A   Clear
10:15 AM 42.8 °F 39.3 °F 26.6 °F 53% 29.91 in 10.0 mi North 5.8 mph - N/A   Clear
10:35 AM 42.8 °F 39.3 °F 26.6 °F 53% 29.91 in 10.0 mi North 5.8 mph - N/A   Clear
10:55 AM 42.8 °F 40.1 °F 26.6 °F 53% 29.91 in 10.0 mi North 4.6 mph - N/A   Clear
11:15 AM 44.6 °F 43.1 °F 24.8 °F 46% 29.91 in 10.0 mi North 3.5 mph - N/A   Clear
11:35 AM 44.6 °F 41.4 °F 26.6 °F 49% 29.90 in 10.0 mi North 5.8 mph - N/A   Clear
11:55 AM 44.6 °F 43.1 °F 26.6 °F 49% 29.90 in 10.0 mi North 3.5 mph - N/A   Clear
12:15 PM 44.6 °F 40.2 °F 26.6 °F 49% 29.90 in 10.0 mi North 8.1 mph - N/A   Clear
12:35 PM 44.6 °F 40.2 °F 28.4 °F 53% 29.90 in 10.0 mi North 8.1 mph - N/A   Clear
12:55 PM 44.6 °F 40.7 °F 28.4 °F 53% 29.89 in 10.0 mi North 6.9 mph - N/A   Clear
1:15 PM 44.6 °F 40.7 °F 28.4 °F 53% 29.89 in 10.0 mi North 6.9 mph - N/A   Clear
1:35 PM 44.6 °F 41.4 °F 28.4 °F 53% 29.89 in 10.0 mi North 5.8 mph - N/A   Clear
1:55 PM 44.6 °F 40.2 °F 28.4 °F 53% 29.89 in 10.0 mi North 8.1 mph - N/A   Clear
2:15 PM 44.6 °F 42.2 °F 28.4 °F 53% 29.89 in 10.0 mi North 4.6 mph - N/A   Clear
2:35 PM 44.6 °F 40.7 °F 26.6 °F 49% 29.89 in 10.0 mi North 6.9 mph - N/A   Clear
2:55 PM 44.6 °F 40.7 °F 28.4 °F 53% 29.89 in 10.0 mi NNW 6.9 mph - N/A   Clear
3:15 PM 44.6 °F 40.2 °F 28.4 °F 53% 29.89 in 10.0 mi North 8.1 mph - N/A   Clear
3:35 PM 44.6 °F - 28.4 °F 53% 29.89 in 10.0 mi Calm Calm - N/A   Clear
3:55 PM 44.6 °F 41.4 °F 28.4 °F 53% 29.89 in 10.0 mi North 5.8 mph - N/A   Clear
4:15 PM 42.8 °F 41.1 °F 28.4 °F 57% 29.90 in 10.0 mi North 3.5 mph - N/A   Clear
4:35 PM 42.8 °F 40.1 °F 28.4 °F 57% 29.90 in 10.0 mi North 4.6 mph - N/A   Clear
4:55 PM 42.8 °F 40.1 °F 28.4 °F 57% 29.90 in 10.0 mi North 4.6 mph - N/A   Clear
5:15 PM 42.8 °F 41.1 °F 24.8 °F 49% 29.91 in 10.0 mi North 3.5 mph - N/A   Partly Cloudy
5:35 PM 42.8 °F 37.5 °F 24.8 °F 49% 29.91 in 10.0 mi NNE 9.2 mph - N/A   Clear
5:55 PM 42.8 °F 38.6 °F 23.0 °F 46% 29.92 in 10.0 mi NNE 6.9 mph - N/A   Clear
6:15 PM 41.0 °F 36.4 °F 23.0 °F 49% 29.92 in 10.0 mi NNE 6.9 mph - N/A   Clear
6:35 PM 41.0 °F 37.1 °F 23.0 °F 49% 29.92 in 10.0 mi North 5.8 mph - N/A   Clear
6:55 PM 41.0 °F 37.1 °F 23.0 °F 49% 29.93 in 10.0 mi North 5.8 mph - N/A   Clear
7:15 PM 41.0 °F - 23.0 °F 49% 29.93 in 10.0 mi Calm Calm - N/A   Clear
7:35 PM 41.0 °F 39.0 °F 23.0 °F 49% 29.93 in 10.0 mi North 3.5 mph - N/A   Clear